Date String (YYYY-MM-DD hh:mm:ss) UTC,Instrument flags,Ambient pressure (hPa),Sample flow (lpm),Bypass flow (lpm),Sample temperature (°C),Ambient temperature (°C),ASC tube jacket temperature (°C),LED temperature (°C),Box temperature (°C),Sample RH (%),Span deviation,Mass concentration (μg/m³),Mass concentration (μg/m³),Mass concentration (μg/m³)
DateTimeUTC,F1_M11,P_M11,Q1_M11,Q2_M11,T1_M11,T2_M11,T3_M11,T4_M11,T5_M11,U1_M11,ZSPAN_M11,X2_M11,X0_M11,X1_M11
2023-01-31 08:00:00,,0826.5,5.00,0.00,22.5,22.1,00.0,31.3,24.4,04.8,0000.7,0012.59,0018.49,0011.57
2023-01-31 08:01:00,,0826.5,4.99,0.00,22.6,22.9,00.0,31.4,24.6,04.8,0000.6,0012.46,0018.28,0011.48
2023-01-31 08:02:00,,0826.5,5.01,0.00,22.7,23.0,00.0,31.4,24.7,04.7,0000.3,0012.34,0017.88,0011.41
2023-01-31 08:03:00,,0826.5,5.00,0.00,22.7,22.4,00.0,31.4,24.6,04.7,0000.2,0012.31,0017.58,0011.39
2023-01-31 08:04:00,,0826.5,5.01,0.00,22.7,21.9,00.0,31.5,24.4,04.7,0000.2,0012.31,0017.78,0011.37
2023-01-31 08:05:00,,0826.5,5.00,0.00,22.6,21.4,00.0,31.5,24.3,04.7,0000.3,0012.33,0018.03,0011.41
2023-01-31 08:06:00,,0826.5,5.00,0.00,22.6,21.1,00.0,31.5,24.2,04.7,0000.2,0012.38,0018.16,0011.44
2023-01-31 08:07:00,,0826.5,4.98,0.00,22.5,20.8,00.0,31.5,24.1,04.8,0000.2,0012.42,0018.30,0011.49
2023-01-31 08:08:00,,0826.5,4.99,0.00,22.5,20.5,00.0,31.4,24.0,04.8,0000.0,0012.46,0018.34,0011.53
2023-01-31 08:09:00,,0826.4,5.03,0.00,22.4,21.0,00.0,31.4,24.1,04.8,0000.2,0012.51,0018.38,0011.56
2023-01-31 08:10:00,,0826.5,4.99,0.00,22.5,22.0,00.0,31.4,24.3,04.8,-000.2,0012.53,0017.82,0011.59
2023-01-31 08:11:00,,0826.5,5.02,0.00,22.6,22.8,00.0,31.4,24.6,04.8,-000.3,0012.56,0017.89,0011.61
2023-01-31 08:12:00,,0826.4,5.00,0.00,22.7,22.5,00.0,31.4,24.6,04.8,-000.2,0012.61,0018.36,0011.64
2023-01-31 08:13:00,,0826.4,4.98,0.00,22.7,22.0,00.0,31.4,24.4,04.8,0000.1,0012.64,0018.71,0011.66
2023-01-31 08:14:00,,0826.4,4.99,0.00,22.6,21.5,00.0,31.4,24.3,04.8,0000.4,0012.63,0018.73,0011.64
2023-01-31 08:15:00,,0826.3,5.02,0.00,22.6,21.1,00.0,31.4,24.2,04.9,0000.5,0012.63,0018.68,0011.64
2023-01-31 08:16:00,,0826.3,5.01,0.00,22.5,20.9,00.0,31.4,24.1,04.9,0000.5,0012.62,0018.34,0011.62
2023-01-31 08:17:00,,0826.4,5.00,0.00,22.4,20.6,00.0,31.4,24.0,04.9,0000.9,0012.56,0018.23,0011.58
2023-01-31 08:18:00,,0826.4,4.98,0.00,22.4,21.0,00.0,31.4,24.1,04.9,0000.9,0012.51,0018.42,0011.54
2023-01-31 08:19:00,,0826.4,5.02,0.00,22.5,21.9,00.0,31.3,24.3,04.9,0001.0,0012.50,0018.99,0011.53
2023-01-31 08:20:00,,0826.5,4.98,0.00,22.6,22.7,00.0,31.3,24.5,04.9,0001.0,0012.49,0019.28,0011.55
2023-01-31 08:21:00,,0826.4,5.00,0.00,22.7,23.0,00.0,31.4,24.7,04.8,0001.1,0012.50,0019.01,0011.54
2023-01-31 08:22:00,,0826.4,5.00,0.00,22.7,22.5,00.0,31.4,24.6,04.8,0001.4,0012.48,0018.97,0011.54
2023-01-31 08:23:00,,0826.4,4.99,0.00,22.7,21.9,00.0,31.4,24.4,04.8,0001.4,0012.45,0019.21,0011.51
2023-01-31 08:24:00,,0826.3,5.00,0.00,22.6,21.5,00.0,31.4,24.3,04.8,0001.2,0012.42,0019.10,0011.48
2023-01-31 08:25:00,,0826.2,5.01,0.00,22.6,21.1,00.0,31.4,24.2,04.8,0000.6,0012.44,0019.49,0011.51
2023-01-31 08:26:00,,0826.3,5.01,0.00,22.5,20.8,00.0,31.4,24.1,04.8,0000.5,0012.45,0020.69,0011.55
2023-01-31 08:27:00,,0826.4,5.00,0.00,22.4,20.6,00.0,31.4,24.0,04.8,0000.8,0012.47,0021.03,0011.56
2023-01-31 08:28:00,,0826.4,5.01,0.00,22.4,20.7,00.0,31.4,24.0,04.9,0000.2,0012.46,0020.99,0011.55
2023-01-31 08:29:00,,0826.3,5.00,0.00,22.5,21.8,00.0,31.3,24.3,04.9,0000.1,0012.45,0020.91,0011.55
2023-01-31 08:30:00,,0826.3,5.00,0.00,22.6,22.7,00.0,31.3,24.5,04.8,0000.3,0012.41,0020.33,0011.53
2023-01-31 08:31:00,,0826.3,4.97,0.00,22.7,23.2,00.0,31.3,24.7,04.8,0000.4,0012.35,0019.75,0011.46
2023-01-31 08:32:00,,0826.3,4.99,0.00,22.7,22.7,00.0,31.4,24.6,04.8,0000.4,0012.31,0019.71,0011.42
2023-01-31 08:33:00,,0826.3,5.01,0.00,22.7,22.1,00.0,31.4,24.5,04.8,0000.2,0012.25,0019.59,0011.38
2023-01-31 08:34:00,,0826.3,5.01,0.00,22.6,21.5,00.0,31.4,24.4,04.8,-000.1,0012.18,0019.16,0011.31
2023-01-31 08:35:00,,0826.3,5.02,0.00,22.6,21.1,00.0,31.4,24.2,04.9,0000.1,0012.13,0018.68,0011.26
2023-01-31 08:36:00,,0826.3,5.02,0.00,22.5,20.8,00.0,31.4,24.1,04.9,0000.2,0012.10,0018.60,0011.23
2023-01-31 08:37:00,,0826.3,5.02,0.00,22.4,20.6,00.0,31.4,24.0,04.9,0000.2,0012.11,0017.46,0011.22
2023-01-31 08:38:00,,0826.3,5.00,0.00,22.4,21.2,00.0,31.4,24.1,04.9,0000.2,0012.04,0016.90,0011.14
2023-01-31 08:39:00,,0826.3,5.00,0.00,22.5,22.2,00.0,31.3,24.4,04.9,0000.3,0012.03,0016.85,0011.14
2023-01-31 08:40:00,,0826.3,5.00,0.00,22.6,23.0,00.0,31.3,24.6,04.9,0000.3,0012.06,0016.79,0011.17
2023-01-31 08:41:00,,0826.2,5.00,0.00,22.7,23.0,00.0,31.4,24.7,04.8,0000.3,0012.10,0017.20,0011.19
2023-01-31 08:42:00,,0826.2,5.00,0.00,22.7,22.3,00.0,31.4,24.5,04.8,0000.3,0012.11,0017.24,0011.21
2023-01-31 08:43:00,,0826.2,4.99,0.00,22.7,21.8,00.0,31.5,24.4,04.7,0000.4,0012.10,0017.20,0011.20
2023-01-31 08:44:00,,0826.3,5.00,0.00,22.6,21.3,00.0,31.5,24.2,04.7,0000.6,0012.12,0017.26,0011.22
2023-01-31 08:45:00,,0826.4,4.98,0.00,22.5,20.9,00.0,31.5,24.1,04.7,0000.7,0012.15,0017.33,0011.26
2023-01-31 08:46:00,,0826.4,4.99,0.00,22.5,20.6,00.0,31.4,24.0,04.8,0000.5,0012.10,0017.13,0011.23
2023-01-31 08:47:00,,0826.3,4.99,0.00,22.4,20.4,00.0,31.4,23.9,04.8,0000.3,0012.00,0016.87,0011.17
2023-01-31 08:48:00,,0826.2,5.00,0.00,22.4,20.9,00.0,31.4,24.0,04.8,0000.4,0011.85,0016.60,0011.07
2023-01-31 08:49:00,,0826.3,5.02,0.00,22.5,21.9,00.0,31.3,24.3,04.8,0000.4,0011.76,0016.83,0011.01
2023-01-31 08:50:00,,0826.4,4.99,0.00,22.6,22.7,00.0,31.3,24.5,04.8,0000.6,0011.67,0016.85,0010.91
2023-01-31 08:51:00,,0826.4,4.99,0.00,22.7,22.9,00.0,31.4,24.6,04.8,0000.9,0011.57,0016.79,0010.80
2023-01-31 08:52:00,,0826.4,4.97,0.00,22.7,22.3,00.0,31.4,24.5,04.8,0001.0,0011.43,0016.08,0010.67
2023-01-31 08:53:00,,0826.4,4.99,0.00,22.6,21.8,00.0,31.4,24.3,04.8,0000.7,0011.32,0015.95,0010.57
2023-01-31 08:54:00,,0826.3,5.02,0.00,22.6,21.3,00.0,31.4,24.2,04.8,0000.4,0011.25,0015.92,0010.49
2023-01-31 08:55:00,,0826.3,5.00,0.00,22.5,20.9,00.0,31.4,24.1,04.8,0000.3,0011.16,0015.90,0010.38
2023-01-31 08:56:00,,0826.2,4.99,0.00,22.4,20.6,00.0,31.4,24.0,04.8,0000.4,0011.08,0015.98,0010.30
2023-01-31 08:57:00,,0826.2,4.98,0.00,22.4,21.0,00.0,31.4,24.0,04.8,0000.7,0011.07,0016.86,0010.26
2023-01-31 08:58:00,,0826.4,5.01,0.00,22.5,21.9,00.0,31.3,24.3,04.8,0001.1,0011.06,0016.94,0010.20
2023-01-31 08:59:00,,0826.4,4.98,0.00,22.6,22.9,00.0,31.3,24.6,04.8,0001.0,0010.98,0016.80,0010.11
